| time (UTC) | temp C | wind direction | speed KPH | gust KPH | rain 1hr cm | rain 24hr cm | rain mn cm | humidity % | barometer mb |
| 20260903165719 | 26 | 266 | 4.8 | 14.5 | 0.00 | 0.00 | 0.00 | 32 | 1019.8 |
| 20260903163607 | 27 | 317 | 6.4 | 27.4 | 0.00 | 0.00 | 0.00 | 32 | 1019.8 |
| 20260903162623 | 27 | 261 | 6.4 | 29.0 | 0.00 | 0.00 | 0.00 | 31 | 1019.8 |
| 20260903161611 | 27 | 289 | 8.0 | 29.0 | 0.00 | 0.00 | 0.00 | 32 | 1019.7 |
| 20260903160626 | 27 | 284 | 9.7 | 20.9 | 0.00 | 0.00 | 0.00 | 31 | 1019.8 |
| 20260903155602 | 27 | 271 | 6.4 | 20.9 | 0.00 | 0.00 | 0.00 | 32 | 1019.8 |
| 20260903153446 | 27 | 317 | 9.7 | 25.7 | 0.00 | 0.00 | 0.00 | 31 | 1019.7 |
| 20260903152502 | 27 | 206 | 4.8 | 20.9 | 0.00 | 0.00 | 0.00 | 32 | 1019.6 |
| 20260903151513 | 27 | 220 | 6.4 | 20.9 | 0.00 | 0.00 | 0.00 | 32 | 1019.8 |
| 20260903145437 | 27 | 213 | 1.6 | 11.3 | 0.00 | 0.00 | 0.00 | 32 | 1020.0 |
| 20260903144440 | 27 | 268 | 4.8 | 19.3 | 0.00 | 0.00 | 0.00 | 32 | 1020.1 |
| 20260903143408 | 27 | 272 | 6.4 | 22.5 | 0.00 | 0.00 | 0.00 | 31 | 1020.1 |
| 20260903142401 | 27 | 311 | 1.6 | 25.7 | 0.00 | 0.00 | 0.00 | 31 | 1020.2 |
| 20260903141337 | 27 | 292 | 3.2 | 16.1 | 0.00 | 0.00 | 0.00 | 31 | 1020.2 |
| 20260903140337 | 27 | 217 | 6.4 | 25.7 | 0.00 | 0.00 | 0.00 | 31 | 1020.3 |
| 20260903134255 | 27 | 278 | 4.8 | 20.9 | 0.00 | 0.00 | 0.00 | 32 | 1020.4 |
| 20260903133320 | 27 | 257 | 4.8 | 17.7 | 0.00 | 0.00 | 0.00 | 32 | 1020.3 |
| 20260903131139 | 26 | 220 | 4.8 | 20.9 | 0.00 | 0.00 | 0.00 | 31 | 1020.6 |
| 20260903130147 | 26 | 291 | 6.4 | 20.9 | 0.00 | 0.00 | 0.00 | 32 | 1020.6 |
| 20260903125203 | 26 | 271 | 9.7 | 24.1 | 0.00 | 0.00 | 0.00 | 32 | 1020.7 |
| 20260903122957 | 26 | 175 | 4.8 | 19.3 | 0.00 | 0.00 | 0.00 | 31 | 1020.7 |
| 20260903121953 | 26 | 242 | 4.8 | 16.1 | 0.00 | 0.00 | 0.00 | 31 | 1020.7 |
| 20260903115827 | 26 | 269 | 6.4 | 27.4 | 0.00 | 0.00 | 0.00 | 31 | 1021.0 |
| 20260903114810 | 26 | 252 | 6.4 | 27.4 | 0.00 | 0.00 | 0.00 | 30 | 1021.1 |
| 20260903112714 | 26 | 266 | 6.4 | 19.3 | 0.00 | 0.00 | 0.00 | 31 | 1020.5 |
| 20260903111726 | 27 | 253 | 4.8 | 17.7 | 0.00 | 0.00 | 0.00 | 30 | 1020.8 |
| 20260903110733 | 27 | 273 | 4.8 | 20.9 | 0.00 | 0.00 | 0.00 | 30 | 1020.8 |
| 20260903105742 | 27 | 270 | 4.8 | 14.5 | 0.00 | 0.00 | 0.00 | 31 | 1020.9 |
| 20260903104718 | 26 | 174 | 4.8 | 16.1 | 0.00 | 0.00 | 0.00 | 33 | 1021.2 |
| 20260903102537 | 26 | 192 | 4.8 | 19.3 | 0.00 | 0.00 | 0.00 | 33 | 1021.5 |
| 20260903101545 | 25 | 178 | 1.6 | 8.0 | 0.00 | 0.00 | 0.00 | 36 | 1021.6 |
| 20260903100549 | 24 | 177 | 1.6 | 11.3 | 0.00 | 0.00 | 0.00 | 36 | 1021.8 |
| 20260903095548 | 23 | 159 | 4.8 | 11.3 | 0.00 | 0.00 | 0.00 | 38 | 1022.2 |
| 20260903094529 | 24 | 187 | 3.2 | 12.9 | 0.00 | 0.00 | 0.00 | 37 | 1022.2 |
| 20260903093506 | 25 | 173 | 4.8 | 17.7 | 0.00 | 0.00 | 0.00 | 36 | 1022.2 |
| 20260903092515 | 25 | 244 | 4.8 | 17.7 | 0.00 | 0.00 | 0.00 | 35 | 1022.2 |
| 20260903091512 | 23 | 219 | 4.8 | 14.5 | 0.00 | 0.00 | 0.00 | 39 | 1022.2 |
| 20260903090529 | 23 | 233 | 6.4 | 20.9 | 0.00 | 0.00 | 0.00 | 38 | 1022.1 |
| 20260903085505 | 23 | 214 | 9.7 | 20.9 | 0.00 | 0.00 | 0.00 | 38 | 1022.1 |
| 20260903084455 | 23 | 172 | 4.8 | 14.5 | 0.00 | 0.00 | 0.00 | 39 | 1022.1 |
| 20260903083423 | 23 | 176 | 4.8 | 14.5 | 0.00 | 0.00 | 0.00 | 39 | 1022.2 |
| 20260903081256 | 21 | 250 | 3.2 | 12.9 | 0.00 | 0.00 | 0.00 | 44 | 1022.6 |
| 20260903080242 | 21 | 204 | 4.8 | 12.9 | 0.00 | 0.00 | 0.00 | 44 | 1022.3 |
| 20260903075256 | 21 | 163 | 3.2 | 16.1 | 0.00 | 0.00 | 0.00 | 45 | 1022.0 |
| 20260903074221 | 20 | 179 | 3.2 | 16.1 | 0.00 | 0.00 | 0.00 | 47 | 1022.3 |
| 20260903073148 | 20 | 237 | 1.6 | 9.7 | 0.00 | 0.00 | 0.00 | 52 | 1022.2 |
| 20260903072144 | 18 | 202 | 1.6 | 9.7 | 0.00 | 0.00 | 0.00 | 55 | 1022.5 |
| 20260903071206 | 18 | 256 | 3.2 | 8.0 | 0.00 | 0.00 | 0.00 | 55 | 1022.6 |
| 20260903070210 | 17 | 180 | 1.6 | 8.0 | 0.00 | 0.00 | 0.00 | 58 | 1022.4 |
| 20260903064058 | 16 | 175 | 1.6 | 6.4 | 0.00 | 0.00 | 0.00 | 61 | 1022.4 |
| 20260903063032 | 15 | 167 | 1.6 | 8.0 | 0.00 | 0.00 | 0.00 | 62 | 1022.4 |
| 20260903062044 | 15 | 180 | 4.8 | 8.0 | 0.00 | 0.00 | 0.00 | 64 | 1022.4 |
| 20260903061025 | 15 | 221 | 3.2 | 12.9 | 0.00 | 0.00 | 0.00 | 65 | 1022.3 |
| 20260903055951 | 14 | 198 | 4.8 | 12.9 | 0.00 | 0.00 | 0.00 | 66 | 1022.1 |
| 20260903054943 | 13 | 205 | 3.2 | 11.3 | 0.00 | 0.00 | 0.00 | 67 | 1022.0 |
| 20260903054002 | 13 | 241 | 1.6 | 6.4 | 0.00 | 0.00 | 0.00 | 68 | 1022.2 |
| 20260903053013 | 13 | 185 | 1.6 | 4.8 | 0.00 | 0.00 | 0.00 | 68 | 1022.1 |
| 20260903052024 | 13 | 180 | 0.0 | 3.2 | 0.00 | 0.00 | 0.00 | 67 | 1022.0 |
| 20260903051033 | 13 | 201 | 0.0 | 0.0 | 0.00 | 0.00 | 0.00 | 67 | 1022.2 |
| 20260903050047 | 13 | 201 | 0.0 | 0.0 | 0.00 | 0.00 | 0.00 | 67 | 1022.3 |
| 20260903045103 | 13 | 201 | 0.0 | 0.0 | 0.00 | 0.00 | 0.00 | 67 | 1022.3 |
| 20260903044105 | 13 | 278 | 0.0 | 0.0 | 0.00 | 0.00 | 0.00 | 67 | 1021.8 |
| 20260903043105 | 13 | 278 | 0.0 | 0.0 | 0.00 | 0.00 | 0.00 | 67 | 1021.7 |
| 20260903042100 | 13 | 278 | 0.0 | 0.0 | 0.00 | 0.00 | 0.00 | 67 | 1021.7 |
| 20260903041125 | 13 | 278 | 0.0 | 0.0 | 0.00 | 0.00 | 0.00 | 67 | 1021.7 |
| 20260903040121 | 13 | 278 | 0.0 | 0.0 | 0.00 | 0.00 | 0.00 | 67 | 1021.7 |
| 20260903035113 | 13 | 278 | 0.0 | 0.0 | 0.00 | 0.00 | 0.00 | 67 | 1021.8 |
| 20260903034055 | 13 | 278 | 0.0 | 0.0 | 0.00 | 0.00 | 0.00 | 66 | 1021.8 |
| 20260903033118 | 13 | 278 | 0.0 | 0.0 | 0.00 | 0.00 | 0.00 | 66 | 1021.9 |
| 20260903032138 | 13 | 278 | 0.0 | 0.0 | 0.00 | 0.00 | 0.00 | 66 | 1022.1 |
| 20260903031125 | 13 | 278 | 0.0 | 0.0 | 0.00 | 0.00 | 0.00 | 66 | 1022.1 |
| 20260903024949 | 13 | 278 | 0.0 | 0.0 | 0.00 | 0.00 | 0.00 | 65 | 1022.1 |
| 20260903023935 | 13 | 278 | 0.0 | 0.0 | 0.00 | 0.00 | 0.00 | 65 | 1022.0 |
| 20260903022936 | 13 | 278 | 0.0 | 0.0 | 0.00 | 0.00 | 0.00 | 65 | 1022.1 |
| 20260903021910 | 13 | 278 | 0.0 | 0.0 | 0.00 | 0.00 | 0.00 | 64 | 1022.1 |
| 20260903020859 | 13 | 278 | 0.0 | 0.0 | 0.00 | 0.00 | 0.00 | 63 | 1022.1 |
| 20260903015914 | 13 | 278 | 0.0 | 0.0 | 0.00 | 0.00 | 0.00 | 63 | 1022.1 |
| 20260903014841 | 13 | 278 | 0.0 | 0.0 | 0.00 | 0.00 | 0.00 | 63 | 1022.0 |
| 20260903013810 | 13 | 278 | 0.0 | 0.0 | 0.00 | 0.00 | 0.00 | 63 | 1022.0 |
| 20260903011647 | 14 | 278 | 0.0 | 0.0 | 0.00 | 0.00 | 0.00 | 63 | 1022.1 |
| 20260903010651 | 14 | 278 | 0.0 | 0.0 | 0.00 | 0.00 | 0.00 | 63 | 1022.1 |
| 20260903005644 | 14 | 278 | 0.0 | 0.0 | 0.00 | 0.00 | 0.00 | 62 | 1022.0 |
| 20260903003535 | 15 | 278 | 0.0 | 0.0 | 0.00 | 0.00 | 0.00 | 62 | 1022.0 |
| 20260903002524 | 15 | 278 | 0.0 | 0.0 | 0.00 | 0.00 | 0.00 | 62 | 1021.9 |
| 20260903001532 | 15 | 278 | 0.0 | 0.0 | 0.00 | 0.00 | 0.00 | 62 | 1022.1 |
| 20260903000551 | 15 | 278 | 0.0 | 0.0 | 0.00 | 0.00 | 0.00 | 62 | 1022.0 |
| 20260902235542 | 15 | 278 | 0.0 | 0.0 | 0.00 | 0.00 | 0.00 | 61 | 1022.0 |
| 20260902234510 | 15 | 278 | 0.0 | 0.0 | 0.00 | 0.00 | 0.00 | 61 | 1022.0 |
| 20260902232328 | 16 | 278 | 0.0 | 0.0 | 0.00 | 0.00 | 0.00 | 60 | 1022.1 |
| 20260902231256 | 16 | 278 | 0.0 | 0.0 | 0.00 | 0.00 | 0.00 | 59 | 1022.1 |
| 20260902230305 | 16 | 278 | 0.0 | 0.0 | 0.00 | 0.00 | 0.00 | 58 | 1022.0 |
| 20260902225306 | 16 | 278 | 0.0 | 0.0 | 0.00 | 0.00 | 0.00 | 58 | 1022.0 |
| 20260902224233 | 16 | 278 | 0.0 | 0.0 | 0.00 | 0.00 | 0.00 | 57 | 1022.0 |
| 20260902222048 | 17 | 278 | 0.0 | 0.0 | 0.00 | 0.00 | 0.00 | 56 | 1022.0 |
| 20260902221055 | 17 | 278 | 0.0 | 0.0 | 0.00 | 0.00 | 0.00 | 55 | 1022.0 |
| 20260902220054 | 17 | 278 | 0.0 | 0.0 | 0.00 | 0.00 | 0.00 | 55 | 1022.0 |
| 20260902215046 | 17 | 278 | 0.0 | 0.0 | 0.00 | 0.00 | 0.00 | 54 | 1021.9 |
| 20260902214013 | 17 | 278 | 0.0 | 0.0 | 0.00 | 0.00 | 0.00 | 54 | 1021.8 |
| 20260902212942 | 18 | 278 | 0.0 | 0.0 | 0.00 | 0.00 | 0.00 | 53 | 1021.7 |
| 20260902212004 | 18 | 278 | 0.0 | 0.0 | 0.00 | 0.00 | 0.00 | 53 | 1021.6 |
| 20260902211016 | 18 | 278 | 0.0 | 0.0 | 0.00 | 0.00 | 0.00 | 52 | 1021.7 |
| 20260902210012 | 18 | 278 | 0.0 | 0.0 | 0.00 | 0.00 | 0.00 | 52 | 1021.7 |
| 20260902204938 | 18 | 278 | 0.0 | 0.0 | 0.00 | 0.00 | 0.00 | 52 | 1021.6 |
| 20260902203936 | 18 | 278 | 0.0 | 0.0 | 0.00 | 0.00 | 0.00 | 51 | 1021.6 |
| 20260902202902 | 19 | 279 | 0.0 | 0.0 | 0.00 | 0.00 | 0.00 | 50 | 1021.5 |
| 20260902201851 | 19 | 279 | 0.0 | 0.0 | 0.00 | 0.00 | 0.00 | 49 | 1021.5 |
| 20260902200818 | 20 | 279 | 0.0 | 0.0 | 0.00 | 0.00 | 0.00 | 48 | 1021.5 |
| 20260902195823 | 20 | 279 | 0.0 | 0.0 | 0.00 | 0.00 | 0.00 | 47 | 1021.4 |
| 20260902194846 | 20 | 279 | 0.0 | 0.0 | 0.00 | 0.00 | 0.00 | 46 | 1021.3 |
| 20260902193836 | 20 | 279 | 0.0 | 0.0 | 0.00 | 0.00 | 0.00 | 45 | 1021.2 |
| 20260902192808 | 20 | 279 | 0.0 | 0.0 | 0.00 | 0.00 | 0.00 | 45 | 1021.1 |
| 20260902191803 | 21 | 279 | 0.0 | 0.0 | 0.00 | 0.00 | 0.00 | 45 | 1021.0 |
| 20260902190739 | 21 | 279 | 0.0 | 0.0 | 0.00 | 0.00 | 0.00 | 44 | 1021.0 |
| 20260902185803 | 21 | 279 | 0.0 | 0.0 | 0.00 | 0.00 | 0.00 | 44 | 1020.9 |
| 20260902184750 | 21 | 279 | 0.0 | 0.0 | 0.00 | 0.00 | 0.00 | 43 | 1020.7 |
| 20260902183717 | 22 | 279 | 0.0 | 0.0 | 0.00 | 0.00 | 0.00 | 43 | 1020.6 |
| 20260902182731 | 22 | 279 | 0.0 | 0.0 | 0.00 | 0.00 | 0.00 | 41 | 1020.6 |
| 20260902181719 | 22 | 279 | 0.0 | 0.0 | 0.00 | 0.00 | 0.00 | 39 | 1020.5 |
| 20260902180734 | 23 | 279 | 0.0 | 0.0 | 0.00 | 0.00 | 0.00 | 37 | 1020.5 |
| 20260902175745 | 23 | 279 | 0.0 | 0.0 | 0.00 | 0.00 | 0.00 | 37 | 1020.4 |
| 20260902174802 | 23 | 287 | 0.0 | 0.0 | 0.00 | 0.00 | 0.00 | 36 | 1020.2 |
| 20260902173728 | 23 | 279 | 0.0 | 3.2 | 0.00 | 0.00 | 0.00 | 36 | 1020.2 |
| 20260902172712 | 23 | 281 | 0.0 | 4.8 | 0.00 | 0.00 | 0.00 | 35 | 1020.1 |
| 20260902171728 | 24 | 271 | 0.0 | 4.8 | 0.00 | 0.00 | 0.00 | 35 | 1020.0 |
| 20260902170721 | 24 | 277 | 0.0 | 0.0 | 0.00 | 0.00 | 0.00 | 34 | 1020.0 |